Location: Breux
(46.3269°N, 3.2993°E)
Time: 21:21:07
(UTC+00:00)

ERS-1 Rocket - Pass Details

Date: 09 April 2020
Orbit: 754 x 757 km, 98.5° (Epoch: 05 June)

Event Time Altitude Azimuth Distance (km) Brightness Sun altitude
Exits shadow 20:46:59 46° 87° (E) 1,016 3.3 -22.4°
Maximum altitude 20:47:27 47° 69° (ENE) 996 3.3 -22.4°
Drops below altitude 10° 20:52:16 10° 357° (N) 2,291 6.0 -23.0°
Sets 20:54:38 0° 352° (N) 3,221 7.0 -23.4°
